Change the Weather History Date:

Wednesday, May 29, 2013

  Actual Average Record
Temperature  
Mean Temperature 74 °F -  
Max Temperature 82 °F 80 °F 86 °F (1999)
Min Temperature 65 °F 63 °F 59 °F (1951)
Cooling Degree Days 8    
Growing Degree Days 24 (Base 50)    
Moisture  
Dew Point 68 °F    
Average Humidity 81    
Maximum Humidity 100    
Minimum Humidity 62    
Precipitation  
Precipitation 0.00 in - - ()
Sea Level Pressure  
Sea Level Pressure 30.09 in    
Wind  
Wind Speed 6 mph (NE)    
Max Wind Speed 16 mph    
Max Gust Speed -    
Visibility 8 miles    
Events Rain    
Averages and records for this station are not official NWS values.
T = Trace of Precipitation, MM = Missing Value Source: NWS Daily Summary

Daily Weather History Graph

Daily Weather History Graph

Search for Another Location

Airport or City:

Trip Planner

Search our weather history database for the weather conditions in past years. The results will help you decide how hot, cold, wet, or windy it might be!

Date:

Astronomy

May. 29, 2013 Rise Set
Actual Time 5:46 AM HST 7:04 PM HST
Civil Twilight 5:22 AM HST 7:28 PM HST
Nautical Twilight 4:53 AM HST 7:57 PM HST
Astronomical Twilight 4:23 AM HST 8:27 PM HST
Moon 11:39 PM HST (5/29) 10:37 AM HST (5/29)
Length of Visible Light 14h 06m
Length of Day
13h 17m
Waning Gibbous, 70% of the Moon is Illuminated
May 29
Waning Gibbous
May 31
Last Quarter
Jun 8
New
Jun 16
First Quarter
Jun 23
Full

Hourly Weather History & Observations

Time (HST) Temp. Heat Index Dew Point Humidity Pressure Visibility Wind Dir Wind Speed Gust Speed Precip Events Conditions
12:04 AM 69.8 °F - 69.8 °F 100% 30.15 in 10.0 mi NE 5.8 mph - N/A   Partly Cloudy
12:56 AM 68.9 °F - 68.0 °F 97% 30.08 in 10.0 mi East 4.6 mph - N/A   Clear
1:56 AM 68.0 °F - 68.0 °F 100% 30.06 in 10.0 mi ESE 4.6 mph - N/A   Clear
2:56 AM 66.9 °F - 66.9 °F 100% 30.05 in 10.0 mi East 6.9 mph - N/A   Clear
3:56 AM 66.9 °F - 66.9 °F 100% 30.04 in 10.0 mi ENE 5.8 mph - N/A   Clear
4:56 AM 65.8 °F - 65.8 °F 100% 30.04 in 10.0 mi East 6.9 mph - N/A   Clear
5:56 AM 66.9 °F - 66.9 °F 100% 30.06 in 10.0 mi NNE 8.1 mph - N/A   Clear
6:56 AM 68.0 °F - 65.8 °F 93% 30.07 in 10.0 mi ENE 5.8 mph - N/A   Clear
7:56 AM 75.9 °F - 68.9 °F 79% 30.07 in 10.0 mi Calm Calm - N/A   Scattered Clouds
8:04 AM 75.2 °F - 69.8 °F 83% 30.13 in 10.0 mi SSW 3.5 mph - N/A   Mostly Cloudy
8:12 AM 73.4 °F - 69.8 °F 88% 30.13 in 10.0 mi Calm Calm - N/A   Scattered Clouds
8:22 AM 75.2 °F - 69.8 °F 83% 30.13 in 10.0 mi Variable 3.5 mph - N/A   Mostly Cloudy
8:40 AM 78.8 °F - 68.0 °F 69% 30.13 in 10.0 mi Variable 3.5 mph - N/A   Scattered Clouds
8:56 AM 79.0 °F - 70.0 °F 74% 30.07 in 10.0 mi WNW 8.1 mph - N/A   Scattered Clouds
9:56 AM 79.0 °F - 70.0 °F 74% 30.07 in 10.0 mi East 3.5 mph - N/A   Mostly Cloudy
10:11 AM 80.6 °F 84.6 °F 71.6 °F 74% 30.14 in 0.8 mi Calm Calm - 0.01 in   Haze
10:13 AM 80.6 °F 84.6 °F 71.6 °F 74% 30.14 in 0.2 mi Calm Calm - 0.01 in   Haze
10:22 AM 78.8 °F - 69.8 °F 74% 30.14 in 0.2 mi Calm Calm - 0.01 in   Haze
10:29 AM 80.6 °F 84.6 °F 71.6 °F 74% 30.13 in 1.2 mi WNW 8.1 mph - 0.01 in   Haze
10:36 AM 80.6 °F 84.6 °F 71.6 °F 74% 30.14 in 10.0 mi WNW 8.1 mph - 0.03 in   Mostly Cloudy
10:46 AM 80.6 °F 83.9 °F 69.8 °F 70% 30.13 in 10.0 mi West 8.1 mph - 0.03 in   Unknown
10:56 AM 79.0 °F - 70.0 °F 74% - - North - - N/A   Unknown
11:56 AM - - - N/A% - - North - - N/A   Unknown
12:49 PM 78.8 °F - 68.0 °F 69% 30.11 in 10.0 mi West 10.4 mph - N/A Rain Light Rain
12:56 PM 77.9 °F - 68.0 °F 71% - - North - - N/A   Unknown
1:56 PM 79.9 °F - 66.9 °F 64% 30.04 in 4.0 mi NE 8.1 mph - N/A   Haze
1:59 PM 80.6 °F 83.2 °F 68.0 °F 65% 30.10 in 2.5 mi NE 6.9 mph - 0.00 in Rain Light Rain
2:06 PM 80.6 °F 83.2 °F 68.0 °F 65% 30.09 in 4.0 mi Variable 4.6 mph - 0.00 in Rain Light Rain
2:56 PM 82.9 °F 86.3 °F 68.9 °F 62% 30.02 in 10.0 mi Variable 6.9 mph - 0.00 in   Scattered Clouds
3:56 PM 81.0 °F 83.8 °F 68.0 °F 65% 30.01 in 10.0 mi North 13.8 mph - N/A   Clear
4:56 PM 79.0 °F - 66.9 °F 66% 30.02 in 10.0 mi NNE 15.0 mph - N/A   Clear
5:56 PM 77.0 °F - 66.9 °F 71% 30.03 in 10.0 mi NE 16.1 mph - N/A   Clear
6:56 PM 72.9 °F - 66.9 °F 82% 30.05 in 10.0 mi NE 11.5 mph - N/A   Partly Cloudy
7:56 PM 72.0 °F - 68.0 °F 87% 30.05 in 10.0 mi NE 13.8 mph - N/A   Clear
8:56 PM 70.9 °F - 66.9 °F 87% 30.06 in 10.0 mi NE 9.2 mph - N/A   Clear
9:56 PM 70.9 °F - 66.9 °F 87% 30.07 in 10.0 mi NE 9.2 mph - N/A   Clear
10:56 PM 70.0 °F - 66.9 °F 90% 30.07 in 10.0 mi NE 6.9 mph - N/A   Clear
11:26 PM 69.8 °F - 66.2 °F 88% 30.13 in 10.0 mi ENE 6.9 mph - N/A   Mostly Cloudy
11:56 PM 70.0 °F - 66.9 °F 90% 30.12 in 10.0 mi NE 5.8 mph - N/A   Partly Cloudy